Regional Weather Roundup
Issued by NWS Wakefield, VA

Home | Current Version | Previous Version | Graphics & Text | Print | Product List | Glossary On
Versions: 1 2 3 4 5 6 7 8 9 10 11 12 13 14 15 16 17 18 19 20 21 22 23 24 25 26 27
000
ASUS41 KAKQ 182315
RWRAKQ

REGIONAL WEATHER ROUNDUP
NATIONAL WEATHER SERVICE WAKEFIELD VA
700 PM EDT WED OCT 18 2017

Note: "fair" indicates few or no clouds below 12,000 feet with no
significant weather and/or obstructions to visibility. * = Denotes
station may not report precipitation (e.g., rain,snow,etc.),
thunder or fog.

VAZ042-051-052>054-056-190000-
NORTHERN VIRGINIA

CITY           SKY/WX    TMP DP  RH WIND       PRES   REMARKS
WASH NATIONAL  PTCLDY    63  47  55 S8        30.30F
DULLES         PTCLDY    60  44  55 SE5       30.29S
FORT BELVOIR   CLEAR     54  49  81 CALM      30.30S
QUANTICO       CLEAR     64  51  62 S9        30.31S
FREDERICKSBRG* CLEAR     58  48  70 SW3       30.30S
STAFFORD*      CLEAR     53  51  90 CALM      30.35S
WARRENTON      CLEAR     59  40  49 CALM      30.30S
CULPEPER*      CLEAR     57  42  56 CALM      30.31S
MANASSAS*      CLEAR     57  46  66 S6        30.30S
LEESBURG*      CLEAR     64  45  48 S5        30.30S
WINCHESTER     CLEAR     55  41  58 CALM      30.28S
FRONT ROYAL*   CLEAR     61  41  48 CALM      30.28R
LURAY*         CLEAR     61  41  48 SW6       30.29R
$$

VAZ048-049-060>072-079>083-190000-
CENTRAL AND SOUTH CENTRAL VIRGINIA

CITY           SKY/WX    TMP DP  RH WIND       PRES   REMARKS
RICHMOND       PTCLDY    56  42  59 SE3       30.32R
CHESTERFIELD*  NOT AVBL
PETERSBURG*    CLEAR     50  47  88 SW3       30.33R
HANOVER        CLEAR     55  45  68 CALM      30.33R
TAPPAHANNOCK*  CLEAR     56  38  50 CALM      30.33R
QUINTON*       FAIR      56  49  78 CALM      30.32R
CHARLOTTSVILLE CLEAR     62  40  44 CALM      30.31R
GORDONSVILLE*  CLEAR     55  46  69 CALM      30.31R
ORANGE*        CLEAR     54  43  66 CALM      30.30S
LOUISA*        CLEAR     48  45  87 CALM      30.31S
BUMPASS*       FAIR      53  48  84 CALM      30.31S
FARMVILLE*     CLEAR     62  38  42 CALM      30.31R
CREWE*         FAIR      52  45  75 CALM      30.32S
FORT PICKETT*  FAIR      56  42  58 CALM      30.32S
CHASE CITY*    FAIR      55  41  59 CALM      30.32S
CLARKSVILLE*   FAIR      54  45  71 CALM      30.32S
SOUTH HILL*    CLEAR     53  47  79 CALM      30.38S
LAWRENCEVILLE* FAIR      55  46  72 CALM      30.32S
EMPORIA*       CLEAR     54  46  76 CALM      30.34R
$$

VAZ088>098-190000-
SOUTHEAST VIRGINIA

CITY           SKY/WX    TMP DP  RH WIND       PRES   REMARKS
NORFOLK        CLEAR     60  48  64 E3        30.32S
VIRGINIA BEACH PTCLDY    57  48  72 E3        30.32R
NORFOLK NAVAL  PTCLDY    56  47  71 E5        30.34R
WEST POINT*    CLEAR     53  50  89 CALM      30.34S
SALUDA*        FAIR      54  48  81 CALM      30.32S
NEWPORT NEWS   CLEAR     54  49  83 CALM      30.33R
LANGLEY AFB    CLEAR     56  48  74 CALM      30.32S
FORT EUSTIS    CLEAR     59  48  67 CALM      30.30R
WILLIAMSBURG*  CLEAR     57  52  82 CALM      30.34R
HR EXEC AP*    NOT AVBL
FRANKLIN*      CLEAR     58  50  75 NE3       30.32S
US460-WAKEFLD  CLEAR     54  51  90 CALM      30.32R
$$

VAZ020-022-025-037-045-190000-
WEST CENTRAL AND SOUTHWEST VIRGINIA

CITY           SKY/WX    TMP DP  RH WIND       PRES   REMARKS
STAUNTON*      CLEAR     59  40  49 S3        30.32S
WAYNESBORO*    CLEAR     56  43  62 S5        30.32R
HOT SPRINGS VA CLEAR     52  33  48 CALM      30.36R
LYNCHBURG      CLEAR     54  41  61 CALM      30.33R
DANVILLE       CLEAR     52  44  74 CALM      30.32S
SOUTH BOSTON*  FAIR      56  40  53 CALM      30.32S
MARTINSVILLE   CLEAR     51  45  80 CALM      30.35S
ROANOKE        CLEAR     61  38  42 E5        30.34R
BLACKSBURG     CLEAR     57  41  55 E5        30.35S
DUBLIN*        CLOUDY    60  43  54 SE5       30.33R
MARION*        CLOUDY    60  40  47 E3        30.34S
HILLSVILLE*    CLOUDY    54  34  47 CALM      30.33S
RICHLANDS*     FAIR      63  11  13 W3        30.30S
WISE*          PTCLDY    57  41  54 S3        30.31F
ABINGDON*      CLEAR     62  47  56 CALM      30.29S
$$

MDZ021>025-VAZ099-100-190000-
SOUTHERN MARYLAND AND THE DELMARVA PENINSULA

CITY           SKY/WX    TMP DP  RH WIND       PRES   REMARKS
PATUXENT RIVER PTCLDY    58  46  64 S5        30.31S
BAY BRIDGE APT CLEAR     63  50  63 S5        30.30S
LEONARDTOWN    NOT AVBL
DOVER          CLEAR     62  45  54 SW5       30.29R
GEORGETOWN     CLEAR     62  45  53 W5        30.32R
EASTON         CLEAR     61  45  55 SW7       30.35R
CAMBRIDGE      CLEAR     57  45  62 CALM      30.32S
SALISBURY      CLEAR     56  50  80 SW5       30.32R
OCEAN CITY     CLEAR     56  44  64 SW5       30.33R
WALLOPS ISLAND CLEAR     56  45  66 CALM      30.33S
ACCOMACK*      CLEAR     53  50  89 CALM      30.33S
$$

NCZ012>017-030>032-190000-
NORTH CENTRAL AND EASTERN NORTH CAROLINA

CITY           SKY/WX    TMP DP  RH WIND       PRES   REMARKS
ROANOKE RAPIDS FAIR      55  52  88 CALM      30.32R
RALEIGH        PTCLDY    59  42  53 CALM      30.32S
ELIZABETH CITY CLEAR     60  54  80 E7        30.32S
AHOSKIE*       CLEAR     57  52  82 CALM      30.32R HAZE
EDENTON*       CLEAR     62  56  80 CALM      30.32S
CURRITUCK*     CLEAR     61  54  77 CALM      30.33S
KILL DEVIL HLS CLEAR     63  54  72 CALM      30.30S
MANTEO         CLEAR    N/A N/A N/A E8        30.31S
CAPE HATTERAS  CLEAR     66  59  78 NE8       30.29R
TARBORO*       NOT AVBL
GOLDSBORO      CLEAR     61  51  69 CALM      30.29R
WASHINGTON     CLEAR     62  55  76 NE6       30.31R
GREENVILLE     CLEAR     63  54  72 NE3       30.31R
NEW BERN       CLEAR     65  56  72 NE6       30.30S
WILMINGTON     CLEAR     65  55  70 N3        30.28R
$$

VAZ048-190000-
ELSEWHERE

CITY           SKY/WX    TMP DP  RH WIND       PRES   REMARKS
HARRISBURG PA  PTCLDY    62  49  62 SW8       30.26S
BALTIMORE      PTCLDY    58  47  66 SW3       30.29S
ANNAPOLIS      CLEAR     62  50  64 S5        30.30R
ANDREWS AFB    CLEAR     58  44  59 S6        30.29S
PHILADELPHIA   PTCLDY    67  45  45 SW10      30.29R
HENDERSON NC   CLEAR     53  39  59 CALM      30.32S
GREENSBORO     PTCLDY    62  40  44 E3        30.31S
ROCKY MOUNT    CLEAR     56  52  86 CALM      30.32R
$$

VAZ100-190000-
MARINE

STATION/POSITION TIME  TEMP    WIND        PRES    WAVE   SWELL
                       AIR SEA DIR/SP/G            HT/PER HT/PER
                 (UTC) (F)     (DEG/KT/KT) (MB)    (FT/S) (FT/S)
BRANDYWINE LGT   2236   67     180/ 11/ 11 1026.5R
CAPE MAY NJ      2242   62 65  160/  5/  6 1026.0R
LEWES DE         2236   63 65  170/  4/  5 1026.1R
15NM E FENWICK I 2250   64 68  180/ 12/ 14 1027.1R   2/10   2/10
OCEAN-CITY-INLET 2236   62 67  240/  6/  7 1027.1R
WACHAPREAGUE VA  2236   58 65  270/  2/  2 1027.0R
THOMAS POINT MD  2300   66 68  210/ 13/ 14   N/A
GOOSES REEF MD   2300   66 69  210/ 10/ 12 1022.4    1/ 2
COVE POINT MD    2236   63     200/  8/ 10 1027.1R
SOLOMONS ISLAND  2248          190/  7/  9 1026.2R
BISHOPS HEAD MD  2236   62 64  180/  7/  8 1026.9F
PINEY POINT MD   2248          210/  5/  6   N/A
POTOMAC MD       2300   64 69  200/ 12/ 14 1026.0    1
CAMBRIDGE MD     2236   61 67              1027.2S
LEWISETTA VA     2236   62 66  180/  5/  6 1026.5R
RAPPAHANNOCK LGT 2248          170/  2/  4 1027.6R
STINGRAY PT      2300   63 68  200/  6/  8 1027.2    0
YORK RVR RNG VA  2236   63     140/  6/  6 1027.3S
YORKTOWN VA      2236   62 70  140/  5/  6 1026.5S
JAMESTOWN VA     2300      70   80/  4/  6   N/A     0
DOMINION TERM VA 2236   64      70/  2/  6 1027.0R
KIPTOPEKE VA     2236      68  100/  2/  3   N/A
CAPE HENRY VA    2236   61     160/  1/  3   N/A
WILLOUBY STN VA  2248          110/  6/  7 1026.7S
S CRANEY ISL VA  2236   63      80/  6/  8 1026.6R
CAPE HENRY BUOY  2300      70                N/A     3/10   2/11
1ST LANDING BUOY 2300   63 69              1026.8    2/ 4
CAPE CHARLES BUO 2251      70                N/A     3/ 9   2/11
64NM E OF VA BCH 2250   65 68   70/  8/ 10 1027.1R   4/ 9   3/ 9
DUCK PIER NC     2236   64 69   60/ 11/ 12 1026.2R
44100 DUCK FRF   2235      71                N/A     4/ 9   2/11
44056 DUCK FRF   2230      70                N/A     4/ 8   2/11
OREGON INLET NC  2248           40/  7/ 13 1026.1R
HATTERAS NC      2236   66 68   40/ 11/ 16 1025.4R
DIAMOND SHLS NC  2250   72 82   30/ 19/ 25 1024.2R   7/ 9   3/ 9
CAPE LOOKOUT NC  2300   65      20/ 13/ 17 1025.1R
$$




USA.gov is the U.S. government's official web portal to all federal, state and local government web resources and services.